Regional Weather Roundup
Issued by NWS Memphis, TN

Home | Current Version | Previous Version | Text Only | Print | Product List | Glossary On
Versions: 1 2 3 4 5 6 7 8 9 10 11 12 13 14 15 16 17 18 19 20 21 22 23 24 25 26 27 28 29 30 31 32 33 34 35 36 37 38 39 40 41 42 43 44 45 46 47 48 49 50
000
ASUS44 KMEG 181710
RWRMEG
MEMPHIS CWA HOURLY WEATHER ROUNDUP
NATIONAL WEATHER SERVICE MEMPHIS TN
1100 AM CST THU DEC 18 2014

...WEST TENNESSEE...

CITY           SKY/WX    TMP DP  RH WIND       PRES   REMARKS
MEMPHIS INTL   CLOUDY    42  36  79 E3        30.25F
NWS MEMPHIS      N/A     40 N/A N/A MISG        N/A
JACKSON        CLOUDY    39  36  87 E3        30.26F
LEXINGTON      CLOUDY    37  34  87 CALM      30.25S
SAVANNAH       CLOUDY    39  36  87 N5        30.25S
DYERSBURG      CLOUDY    37  25  60 E6        30.28F WCI  33
UNION CITY     CLOUDY    34  34 100 NE6       30.27F WCI  29
PARIS          CLOUDY    34  30  86 NE5       30.27F WCI  30
HUNTINGDON     CLOUDY    34  31  89 NE3       30.27F


...EASTERN ARKANSAS...

CITY           SKY/WX    TMP DP  RH WIND       PRES   REMARKS
JONESBORO      CLOUDY    39  37  92 E7        30.27S WCI  34
WEST MEMPHIS   CLOUDY    41  39  93 CALM      30.26F
BATESVILLE     CLOUDY    37  36  93 E6        30.26F WCI  33
NEWPORT        LGT RAIN  39  36  89 E6        30.28S VSB 1/4 WCI  35
WALNUT RIDGE   CLOUDY    39  34  81 E7        30.26F WCI  34
BLYTHEVILLE    CLOUDY    40  37  89 E7        30.26F
NW BLYTHEVILLE CLOUDY    39  36  87 NE8       30.26F WCI  34
SEARCY         CLOUDY    39  38  96 E6        30.28S FOG     WCI  35
STUTTGART      CLOUDY    39  37  93 NE7       30.26S WCI  34
PINE BLUFF     CLOUDY    42  39  89 NE6       30.24F
MONTICELLO     CLOUDY    46  42  86 E3        30.22F


...NORTH MISSISSIPPI...

CITY           SKY/WX    TMP DP  RH WIND       PRES   REMARKS
TUPELO         CLOUDY    43  36  76 CALM      30.25R
OXFORD         PTSUNNY   41  36  81 CALM      30.26F
OLIVE BRANCH   CLOUDY    39  39 100 CALM      30.26F
TUNICA         PTSUNNY   41  36  81 CALM      30.27F
CLARKSDALE     PTSUNNY   43  41  93 CALM      30.26F
CORINTH        CLOUDY    43  36  75 CALM      30.25S
GRENADA        CLOUDY    45  37  76 CALM      30.25F
GREENWOOD      CLOUDY    47  45  93 E6        30.23F
COLUMBUS       PTSUNNY   45  34  64 CALM      30.24F
STARKVILLE     CLOUDY    45  36  70 CALM      30.22F
GOLDEN TRIANGL CLOUDY    45  34  65 S6        30.23F


...SOUTHEAST MISSOURI...

CITY           SKY/WX    TMP DP  RH WIND       PRES   REMARKS
WEST PLAINS    CLOUDY    34  32  92 SE6       30.23S FOG     WCI  29
POPLAR BLUFF   CLOUDY    36  32  85 NE7       30.28F FOG     WCI  30
CAPE GIRARDEAU CLOUDY    35  33  92 NE5       30.29F WCI  31


...NORTHWEST ALABAMA...

CITY           SKY/WX    TMP DP  RH WIND       PRES   REMARKS
MUSCLE SHOALS  CLOUDY    42  35  76 E3        30.23F


...MIDDLE TENNESSEE...

CITY           SKY/WX    TMP DP  RH WIND       PRES   REMARKS
NASHVILLE      CLOUDY    36  32  85 N3        30.24F
CLARKSVILLE    CLOUDY    34  30  85 N7        30.28R WCI  28


...WESTERN KENTUCKY...

CITY           SKY/WX    TMP DP  RH WIND       PRES   REMARKS
PADUCAH        CLOUDY    34  31  88 E6        30.28F FOG     WCI  29
FORT CAMPBELL  CLOUDY    33  29  87 N7        30.28R WCI  26


...CENTRAL ARKANSAS...

CITY           SKY/WX    TMP DP  RH WIND       PRES   REMARKS
LITTLE ROCK    CLOUDY    40  37  89 E3        30.25F FOG


SKY/WX REPORTED AS FAIR MEANS FEW OR NO CLOUDS BELOW
12 THOUSAND FEET.




USA.gov is the U.S. government's official web portal to all federal, state and local government web resources and services.